Temp
2 1 1 1 1 1 2 2 2 1 2 2 1 2 2 2 4 5 5 5 5 5 5 5 5 6 6 5 5 5 5 5 5 5 4 4 4 4 4 4 4 4 4 4 4 4 5 5 4 5 4 4
1 2 1 1 1 1 1 2 1 1 1 1 1 2 2 2 3 4 5 4 4 5 5 5 5 5 5 5 5 4 4 4 4 4 4 4 4 4 4 4 4 4 4 4 4 4 4 4 4 4 4 4
1 1 2 1 1 1 1 1 1 1 1 1 1 2 2 2 3 4 4 3 4 5 5 5 5 5 4 4 4 4 4 4 4 4 4 4 4 4 4 4 4 4 4 4 4 4 4 4 4 4 4 4
1 1 1 2 1 1 1 1 1 1 1 1 1 2 2 2 3 3 3 3 4 4 5 5 4 4 4 4 4 3 3 4 4 4 4 4 4 4 4 4 4 4 4 4 4 4 4 4 4 4 4 4
1 1 1 2 1 1 0 1 1 1 1 1 1 2 2 2 2 2 2 2 3 4 4 4 4 3 3 3 3 3 3 3 4 4 4 4 4 4 4 4 4 3 3 4 4 4 4 4 4 4 4 4
1 1 1 1 1 1 1 1 1 1 1 1 2 2 1 1 1 1 1 2 3 3 4 4 3 3 3 3 3 3 3 3 4 4 4 4 4 4 3 3 3 3 3 4 4 4 4 4 4 4 4 4
1 1 1 1 0 1 1 1 1 1 1 1 2 2 1 1 1 1 1 2 2 3 2 3 3 3 3 3 3 3 3 4 4 4 4 4 3 3 3 3 3 3 3 3 4 4 4 4 4 4 4 4
1 1 1 1 0 0 1 1 1 1 1 1 2 2 1 1 1 1 1 1 1 2 2 2 2 2 3 3 3 3 3 3 3 3 3 3 3 3 3 3 3 3 3 3 3 4 4 4 4 4 4 3
1 1 1 1 0 0 1 0 0 1 1 1 1 2 2 1 1 1 1 1 1 1 2 2 2 2 2 2 2 2 3 3 3 3 3 3 3 3 3 3 3 3 3 3 3 3 3 4 4 4 4 3
1 1 1 1 1 1 0 0 0 1 1 1 1 2 2 1 1 1 1 1 1 1 2 2 2 2 2 2 2 2 2 2 2 2 3 3 3 3 3 3 3 3 3 3 3 3 3 4 4 4 4 3
0 0 0 0 0 0 0 0 0 0 1 1 1 1 1 1 1 1 1 0 1 1 1 2 2 2 2 2 2 2 2 2 2 2 3 3 3 3 3 3 3 3 3 3 3 3 3 3 3 3 3 3
0 0 0 0 -0 -0 -0 0 0 0 0 0 0 0 1 1 1 1 1 1 1 1 1 2 2 2 2 1 1 1 1 1 2 2 2 2 2 3 3 3 3 3 3 3 3 3 3 3 3 3 3 3
-0 -0 -0 -0 -0 -0 -0 -0 0 0 0 0 0 0 1 1 1 1 1 1 1 1 1 1 1 2 1 1 1 1 1 1 2 2 2 2 2 2 2 3 2 2 2 3 3 3 3 3 3 3 3 3
-0 -0 -1 -1 -0 -0 -0 0 0 0 -0 0 0 0 1 1 1 1 0 1 0 1 1 1 1 1 1 1 1 1 1 1 1 2 2 2 2 2 2 2 2 2 2 2 2 3 3 3 3 3 3 3
-0 -1 -1 -0 -0 -1 -1 -0 -0 -0 -0 0 0 0 1 1 1 1 0 -0 0 0 1 1 1 1 1 1 0 0 1 1 1 1 2 2 2 2 2 2 2 2 2 2 2 2 3 3 3 3 3 3
-0 -0 -1 -1 -0 -1 -1 -1 -1 -0 -0 -0 -0 -0 0 0 0 0 -0 -0 -1 -0 0 0 1 1 1 1 0 0 0 1 1 1 1 2 2 2 2 2 2 2 2 2 2 2 2 3 3 3 3 3
-1 -1 -1 -0 -0 -1 -1 -1 -1 -0 -0 -0 0 -0 -0 -0 -0 -0 -1 -1 -1 -1 -0 -0 0 0 0 0 0 0 0 1 1 1 1 1 1 2 2 2 2 2 2 2 2 2 2 2 2 3 3 2
-1 -1 -1 -1 -1 -1 -0 -0 -1 -0 -0 -0 -0 -0 -1 -1 -0 -1 -1 -1 -2 -1 -1 -0 -0 0 0 -0 -0 -0 0 0 1 1 1 1 1 1 1 2 2 2 2 2 2 2 2 2 2 2 2 2
-1 -1 -1 -1 -1 -1 -0 -0 -1 -1 -1 -1 -1 -1 -1 -1 -1 -1 -1 -1 -2 -2 -1 -1 -1 -0 -0 -0 -1 -0 -0 0 0 0 1 1 1 1 1 1 1 2 2 2 2 2 2 2 2 2 2 2
-1 -1 -2 -1 -1 -1 -1 -1 -1 -1 -1 -1 -1 -1 -1 -1 -1 -1 -1 -1 -2 -2 -1 -1 -1 -1 -1 -1 -1 -1 -1 -0 -0 0 0 1 1 1 1 1 1 1 1 2 2 2 2 2 2 2 2 2
-2 -2 -2 -2 -1 -1 -1 -1 -1 -1 -1 -1 -2 -2 -1 -1 -1 -1 -1 -1 -1 -2 -2 -1 -1 -1 -1 -1 -1 -1 -1 -1 -0 -0 0 0 0 1 1 1 1 1 1 1 1 1 1 1 2 2 2 2
-2 -2 -2 -2 -2 -2 -2 -1 -1 -1 -2 -2 -2 -2 -2 -2 -2 -1 -1 -1 -1 -2 -2 -2 -1 -1 -1 -1 -1 -1 -1 -1 -1 -1 -0 -0 0 0 0 0 1 1 1 1 1 1 1 1 1 2 2 2
-2 -2 -2 -2 -2 -2 -2 -2 -2 -2 -3 -3 -2 -2 -2 -2 -2 -2 -2 -2 -2 -2 -2 -2 -2 -1 -1 -1 -1 -1 -2 -2 -1 -1 -1 -1 -0 -0 -0 0 0 0 1 1 1 1 1 1 1 1 1 2
-3 -2 -2 -2 -2 -2 -3 -3 -3 -3 -3 -3 -3 -2 -2 -2 -2 -2 -2 -2 -3 -3 -2 -2 -2 -2 -2 -1 -1 -1 -2 -2 -2 -2 -1 -1 -1 -1 -1 -0 -0 -0 0 0 1 1 1 1 1 1 1 1
-3 -3 -3 -3 -3 -3 -3 -3 -3 -3 -3 -2 -3 -3 -2 -3 -2 -3 -3 -3 -4 -4 -3 -3 -2 -2 -2 -2 -2 -2 -2 -2 -2 -2 -2 -2 -1 -1 -1 -1 -1 -0 -0 -0 0 0 0 0 0 0 0 1
-3 -3 -3 -3 -3 -3 -3 -4 -3 -3 -3 -2 -2 -3 -3 -3 -3 -3 -3 -3 -4 -5 -4 -3 -3 -2 -2 -2 -2 -2 -2 -2 -2 -2 -2 -2 -2 -2 -1 -1 -1 -1 -1 -0 -0 -0 -0 0 -0 -0 -0 0
-4 -3 -3 -3 -3 -3 -3 -4 -3 -3 -3 -2 -2 -3 -3 -3 -3 -3 -4 -3 -4 -4 -5 -4 -3 -3 -3 -2 -2 -2 -2 -2 -2 -2 -2 -2 -2 -2 -2 -1 -1 -1 -1 -1 -1 -0 -0 -0 -0 -0 -0 -0
-4 -4 -3 -3 -3 -3 -3 -3 -3 -3 -3 -3 -2 -3 -3 -3 -3 -4 -4 -4 -4 -4 -4 -4 -4 -3 -3 -2 -2 -2 -2 -2 -2 -2 -2 -2 -2 -2 -2 -2 -2 -2 -2 -1 -1 -1 -1 -0 -0 -0 -0 -1
-4 -4 -4 -4 -4 -4 -4 -3 -3 -3 -3 -3 -2 -3 -3 -3 -4 -4 -4 -4 -4 -4 -4 -4 -4 -3 -3 -3 -2 -2 -2 -2 -2 -2 -2 -2 -2 -2 -2 -2 -2 -2 -2 -2 -2 -1 -1 -1 -1 -1 -1 -1
-4 -4 -4 -4 -4 -4 -4 -3 -3 -3 -3 -3 -3 -3 -3 -3 -3 -4 -4 -4 -4 -4 -4 -4 -3 -3 -3 -3 -3 -2 -2 -2 -2 -2 -2 -2 -2 -2 -2 -2 -2 -2 -2 -2 -2 -2 -2 -1 -1 -1 -1 -1
-5 -5 -4 -4 -4 -4 -4 -4 -3 -3 -3 -3 -3 -3 -3 -3 -3 -3 -3 -3 -3 -3 -3 -3 -3 -3 -3 -3 -3 -3 -3 -3 -3 -3 -3 -3 -2 -2 -2 -2 -2 -2 -2 -2 -2 -2 -2 -2 -2 -2 -2 -2
Height
3082 3084 3085 3085 3086 3087 3088 3090 3091 3092 3094 3095 3096 3097 3097 3096 3096 3099 3102 3105 3105 3105 3106 3107 3108 3109 3110 3111 3112 3112 3113 3113 3114 3115 3116 3117 3117 3118 3119 3119 3121 3121 3121 3122 3123 3123 3124 3125 3126 3126 3127 3128
3078 3079 3082 3083 3083 3084 3085 3087 3089 3089 3091 3092 3094 3094 3094 3093 3094 3097 3100 3102 3102 3103 3104 3105 3105 3107 3108 3109 3110 3111 3111 3112 3112 3113 3114 3115 3116 3116 3117 3118 3119 3119 3120 3120 3121 3122 3123 3123 3124 3125 3125 3126
3074 3075 3077 3080 3080 3081 3082 3084 3085 3087 3089 3090 3090 3091 3091 3091 3092 3094 3097 3098 3098 3100 3101 3102 3103 3104 3106 3108 3108 3109 3109 3110 3111 3111 3112 3113 3114 3115 3116 3116 3117 3118 3118 3119 3119 3120 3121 3122 3123 3123 3124 3125
3070 3072 3073 3075 3077 3078 3080 3081 3082 3084 3086 3087 3087 3088 3088 3088 3089 3091 3094 3095 3095 3096 3097 3099 3101 3102 3103 3105 3106 3107 3107 3108 3109 3109 3110 3111 3112 3113 3114 3115 3116 3117 3117 3117 3118 3119 3120 3120 3121 3122 3123 3124
3066 3067 3069 3071 3073 3074 3077 3078 3079 3081 3082 3083 3084 3085 3085 3086 3087 3089 3092 3093 3093 3094 3095 3097 3099 3100 3100 3101 3103 3104 3105 3106 3106 3107 3108 3110 3110 3112 3113 3114 3114 3115 3115 3116 3116 3117 3118 3119 3120 3121 3122 3123
3062 3063 3065 3066 3069 3071 3073 3075 3076 3077 3078 3080 3081 3081 3083 3085 3086 3088 3090 3091 3090 3091 3092 3094 3096 3097 3097 3098 3100 3101 3103 3104 3104 3105 3107 3108 3109 3110 3111 3112 3112 3113 3114 3114 3115 3115 3116 3117 3118 3119 3121 3122
3059 3060 3061 3062 3065 3067 3068 3070 3072 3073 3075 3077 3079 3079 3081 3083 3085 3086 3087 3087 3088 3089 3089 3090 3093 3094 3095 3096 3097 3099 3100 3101 3103 3105 3106 3107 3107 3108 3109 3110 3110 3111 3112 3113 3113 3114 3115 3116 3117 3118 3119 3120
3056 3057 3057 3058 3061 3062 3064 3066 3068 3070 3072 3075 3076 3077 3079 3082 3082 3083 3084 3085 3086 3088 3089 3090 3091 3092 3093 3094 3095 3097 3098 3100 3102 3103 3104 3105 3105 3106 3107 3108 3109 3110 3111 3111 3112 3113 3114 3115 3115 3117 3118 3119
3053 3054 3053 3055 3056 3058 3061 3062 3064 3067 3069 3072 3073 3074 3078 3079 3079 3080 3082 3082 3084 3086 3089 3090 3090 3091 3092 3093 3094 3095 3097 3099 3100 3101 3102 3103 3103 3104 3105 3106 3107 3108 3109 3110 3111 3112 3112 3113 3114 3115 3117 3118
3050 3050 3050 3051 3052 3054 3056 3058 3061 3064 3066 3070 3071 3072 3074 3076 3077 3078 3079 3081 3082 3084 3086 3088 3089 3091 3092 3091 3092 3093 3095 3096 3097 3098 3100 3101 3101 3102 3103 3104 3106 3106 3107 3108 3109 3110 3111 3112 3113 3114 3115 3116
3046 3046 3047 3048 3049 3050 3053 3055 3058 3061 3064 3066 3068 3071 3072 3074 3075 3076 3077 3079 3081 3082 3083 3085 3087 3090 3091 3090 3089 3091 3092 3094 3095 3097 3098 3099 3100 3101 3101 3102 3104 3105 3105 3106 3107 3108 3109 3110 3111 3112 3114 3115
3044 3044 3045 3045 3046 3047 3049 3052 3056 3059 3062 3064 3066 3069 3071 3072 3073 3074 3076 3077 3078 3080 3081 3083 3085 3088 3090 3089 3088 3089 3090 3092 3093 3095 3096 3097 3098 3099 3100 3101 3102 3103 3104 3104 3105 3106 3107 3108 3109 3110 3112 3113
3042 3041 3042 3043 3044 3044 3046 3049 3053 3056 3059 3062 3064 3067 3068 3069 3071 3072 3073 3074 3076 3077 3079 3081 3083 3085 3088 3087 3087 3087 3088 3090 3091 3093 3094 3095 3097 3098 3098 3099 3100 3101 3102 3102 3103 3104 3105 3106 3107 3108 3109 3111
3039 3039 3039 3040 3041 3041 3043 3047 3050 3054 3057 3060 3062 3064 3065 3067 3068 3069 3070 3072 3073 3074 3077 3079 3081 3083 3085 3086 3085 3085 3087 3088 3089 3091 3092 3093 3095 3096 3097 3098 3098 3099 3100 3101 3101 3102 3103 3104 3105 3106 3108 3109
3037 3037 3037 3037 3037 3039 3042 3045 3049 3052 3055 3058 3060 3061 3062 3064 3065 3066 3068 3069 3070 3072 3075 3078 3080 3081 3082 3084 3084 3084 3085 3087 3088 3089 3090 3092 3093 3094 3095 3096 3097 3097 3098 3099 3100 3101 3101 3102 3104 3105 3106 3107
3035 3035 3035 3035 3036 3037 3041 3044 3047 3050 3052 3055 3057 3058 3060 3061 3061 3063 3065 3067 3068 3071 3074 3076 3078 3079 3080 3082 3083 3083 3084 3085 3086 3088 3089 3090 3091 3092 3093 3094 3095 3096 3096 3097 3098 3099 3100 3101 3102 3103 3104 3106
3034 3033 3033 3033 3034 3036 3040 3042 3044 3046 3049 3052 3053 3055 3057 3057 3058 3060 3061 3063 3065 3068 3071 3074 3075 3077 3078 3079 3081 3081 3082 3083 3085 3086 3087 3088 3089 3090 3091 3092 3093 3094 3095 3095 3096 3097 3098 3099 3100 3102 3103 3104
3033 3033 3033 3034 3035 3036 3037 3039 3042 3044 3046 3048 3050 3052 3054 3054 3055 3056 3057 3060 3063 3065 3068 3071 3073 3074 3076 3077 3078 3080 3081 3082 3083 3084 3085 3087 3088 3089 3089 3090 3091 3092 3093 3093 3094 3095 3096 3097 3098 3099 3101 3102
3032 3032 3033 3035 3036 3035 3035 3037 3040 3042 3044 3046 3048 3049 3050 3052 3053 3053 3054 3057 3060 3064 3066 3069 3071 3072 3073 3075 3076 3078 3079 3081 3081 3082 3084 3085 3086 3087 3088 3089 3090 3090 3091 3091 3092 3093 3093 3095 3096 3097 3099 3100
3031 3031 3032 3033 3034 3034 3035 3037 3038 3039 3041 3043 3045 3047 3047 3049 3050 3051 3052 3054 3057 3060 3064 3066 3068 3069 3070 3072 3074 3076 3078 3079 3080 3081 3082 3084 3085 3086 3086 3087 3088 3089 3090 3090 3091 3091 3092 3093 3094 3095 3096 3097
3031 3030 3030 3031 3032 3033 3034 3035 3035 3036 3038 3041 3043 3044 3044 3045 3047 3048 3050 3051 3054 3056 3060 3063 3064 3066 3067 3069 3071 3074 3076 3077 3078 3079 3081 3082 3083 3084 3085 3086 3087 3088 3088 3089 3089 3090 3090 3091 3092 3093 3094 3095
3031 3030 3029 3030 3031 3032 3033 3033 3033 3035 3037 3038 3040 3041 3042 3043 3044 3046 3047 3049 3051 3053 3056 3059 3061 3063 3064 3066 3069 3071 3074 3075 3076 3077 3079 3080 3082 3083 3084 3085 3085 3086 3087 3087 3088 3088 3089 3089 3090 3091 3093 3094
3030 3030 3029 3029 3029 3030 3031 3032 3033 3035 3036 3035 3037 3039 3041 3042 3043 3045 3046 3047 3048 3050 3052 3055 3058 3060 3061 3064 3066 3069 3071 3073 3074 3075 3076 3078 3080 3081 3082 3083 3084 3085 3085 3086 3086 3087 3088 3088 3089 3090 3092 3093
3029 3029 3029 3029 3029 3029 3029 3030 3032 3034 3035 3035 3036 3038 3039 3040 3042 3043 3045 3046 3046 3048 3050 3052 3055 3057 3058 3060 3063 3066 3069 3070 3072 3073 3074 3075 3078 3079 3081 3081 3082 3083 3084 3085 3085 3086 3086 3087 3088 3089 3090 3091
3028 3028 3028 3028 3028 3028 3028 3028 3029 3032 3034 3035 3035 3036 3037 3038 3040 3041 3042 3043 3045 3046 3048 3050 3052 3054 3056 3058 3060 3062 3064 3066 3068 3070 3072 3074 3075 3077 3079 3080 3081 3082 3082 3083 3084 3085 3085 3086 3086 3087 3089 3090
3027 3027 3027 3027 3028 3028 3028 3027 3028 3029 3031 3032 3033 3035 3036 3037 3038 3039 3040 3041 3042 3044 3046 3048 3050 3053 3055 3057 3058 3060 3061 3063 3066 3068 3071 3072 3073 3075 3077 3078 3079 3080 3080 3081 3082 3083 3083 3084 3084 3086 3087 3089
3026 3026 3026 3026 3026 3027 3027 3026 3026 3027 3028 3030 3031 3032 3034 3035 3036 3037 3038 3039 3041 3042 3044 3046 3049 3051 3053 3055 3056 3057 3059 3062 3064 3067 3069 3070 3071 3072 3074 3076 3077 3078 3078 3079 3080 3080 3081 3082 3082 3083 3085 3087
3025 3025 3024 3024 3024 3024 3025 3024 3024 3025 3026 3027 3029 3030 3032 3034 3034 3035 3036 3037 3039 3041 3044 3045 3047 3049 3051 3052 3054 3055 3057 3060 3062 3064 3066 3068 3069 3070 3072 3073 3073 3074 3075 3077 3077 3077 3078 3079 3080 3082 3083 3084
3024 3023 3023 3022 3022 3022 3022 3022 3022 3023 3024 3026 3027 3028 3030 3032 3033 3033 3034 3036 3038 3040 3042 3044 3046 3048 3049 3050 3051 3053 3054 3057 3059 3061 3063 3065 3066 3068 3069 3069 3070 3071 3072 3074 3074 3075 3076 3077 3078 3080 3081 3082
3022 3022 3021 3020 3020 3019 3019 3019 3020 3021 3022 3024 3025 3026 3028 3029 3031 3032 3033 3035 3037 3039 3041 3043 3044 3045 3047 3048 3049 3051 3052 3054 3056 3059 3061 3062 3063 3064 3065 3066 3067 3068 3070 3070 3071 3072 3074 3075 3076 3078 3079 3079
3021 3020 3019 3018 3017 3017 3017 3017 3018 3019 3020 3021 3023 3024 3026 3027 3028 3030 3032 3033 3035 3037 3039 3041 3042 3043 3044 3046 3047 3048 3050 3052 3054 3056 3058 3059 3060 3061 3062 3063 3064 3066 3066 3066 3068 3070 3071 3072 3073 3075 3076 3076
Wind_Speed
30 29 30 27 27 28 26 25 29 30 30 31 33 34 34 35 36 33 28 26 25 26 26 26 26 25 23 22 22 22 21 20 19 19 19 19 19 19 18 19 17 18 19 18 18 19 18 15 14 13 13 15
29 28 32 31 28 28 27 26 30 33 31 32 35 36 37 37 35 31 28 26 27 29 28 27 27 25 22 22 21 21 21 21 20 20 20 20 20 19 18 18 18 18 19 18 18 19 18 16 14 14 14 15
31 29 31 34 29 26 29 28 29 33 32 34 37 38 39 36 33 33 30 29 31 31 30 29 28 24 21 22 21 22 22 21 21 21 21 20 20 19 18 18 18 17 19 19 19 19 17 16 15 15 15 16
32 31 31 35 32 27 30 31 29 33 35 37 38 40 40 35 33 34 32 32 33 33 32 30 27 24 21 22 22 22 23 22 22 22 21 20 19 18 18 18 17 17 19 19 19 18 17 17 16 16 16 16
31 32 31 33 35 31 31 32 31 33 37 39 41 43 42 37 35 34 30 30 32 33 32 29 28 25 23 23 23 23 23 22 22 22 21 19 18 18 17 16 16 17 18 18 18 18 17 17 16 16 16 17
29 32 32 31 34 35 33 34 33 36 41 42 42 44 43 38 35 32 29 31 34 34 32 30 29 27 25 25 25 24 23 23 23 21 19 18 17 16 15 15 16 17 17 18 18 17 17 17 17 17 16 16
26 28 33 33 34 36 35 37 37 38 43 43 43 44 42 36 33 30 30 32 34 34 32 30 29 27 26 25 25 24 23 24 21 18 17 17 16 15 15 16 16 16 16 17 16 16 17 17 17 17 16 16
24 25 31 34 35 37 36 38 40 40 42 43 44 44 38 33 31 30 31 31 31 31 29 28 28 27 25 24 23 23 23 21 17 16 16 16 16 16 15 16 16 15 15 15 15 15 16 16 17 16 16 16
23 24 29 32 35 39 38 40 41 40 41 43 44 42 34 30 31 31 31 31 30 29 29 28 27 25 24 22 22 21 20 17 16 16 17 16 16 16 15 15 14 14 14 14 14 14 15 16 16 16 16 17
22 23 25 29 34 37 38 42 42 40 41 42 44 43 34 29 30 31 31 31 30 29 31 30 27 25 23 22 21 20 18 16 16 17 16 16 16 15 14 14 14 13 14 14 14 14 14 15 15 15 16 17
22 21 20 24 31 35 36 41 41 39 41 41 42 39 31 29 31 31 31 31 30 30 31 31 28 27 25 21 20 19 17 16 16 16 15 15 14 14 14 14 14 14 14 14 14 14 15 15 15 15 16 17
20 20 20 20 26 34 38 41 41 39 38 38 37 32 26 27 31 31 30 31 31 30 31 31 30 29 27 21 19 18 17 17 16 15 14 14 14 14 14 14 14 14 14 14 14 15 15 15 16 15 16 17
18 17 19 20 24 31 37 40 38 36 33 31 30 30 29 27 27 30 31 30 29 28 29 31 30 29 26 21 19 18 17 16 16 14 14 14 14 15 15 15 14 14 14 14 15 15 16 16 16 16 17 17
16 14 16 20 22 27 34 38 36 33 32 30 30 35 37 29 25 30 31 29 26 25 28 31 29 28 26 21 18 18 18 16 16 15 14 14 15 15 15 15 15 14 14 15 15 15 16 17 17 17 17 17
14 14 15 18 19 25 30 33 34 34 34 35 38 40 38 29 28 32 29 25 22 22 27 29 28 27 25 21 19 18 17 16 16 15 14 14 14 15 15 15 15 15 15 15 15 16 16 17 17 18 18 18
11 14 17 16 14 22 29 29 32 34 36 40 42 41 37 32 32 30 23 19 19 20 25 27 27 25 23 22 20 18 17 16 16 15 14 14 14 15 15 15 15 15 15 15 15 16 16 17 17 17 18 18
8 12 22 22 14 16 24 26 30 33 35 41 44 40 37 35 30 22 17 17 18 20 24 24 25 25 22 21 20 19 17 16 16 15 14 14 14 15 15 15 15 15 15 15 16 16 16 17 17 17 17 17
7 10 20 24 17 16 19 19 21 30 38 43 41 34 33 33 27 21 16 15 17 21 24 23 23 24 22 20 19 19 17 16 16 15 14 14 15 15 16 16 16 16 16 16 16 17 17 17 17 17 17 17
8 9 15 21 17 18 25 24 18 23 33 36 32 28 30 30 25 22 18 17 18 20 24 25 23 23 22 19 17 17 17 16 15 14 14 14 15 15 16 16 16 16 17 17 17 17 17 17 17 17 17 17
10 10 17 25 23 19 23 28 26 25 24 25 27 30 32 29 25 23 23 22 20 21 24 25 24 24 22 19 17 16 16 16 15 14 14 14 15 15 15 16 16 16 16 17 17 17 17 17 17 17 17 17
9 11 14 22 27 26 25 29 35 34 27 21 25 31 29 25 26 26 26 25 23 24 26 26 26 26 23 21 19 18 17 17 15 14 14 14 15 15 15 16 16 16 16 16 17 17 17 18 18 18 18 18
11 11 12 15 20 26 29 33 39 38 29 22 24 28 24 20 22 23 24 24 23 25 29 30 29 27 25 23 21 20 18 17 16 15 15 15 15 15 15 15 15 16 16 17 17 18 18 18 18 18 17 17
15 13 10 11 15 20 22 26 33 32 25 21 23 24 20 17 17 18 21 23 23 25 28 32 32 30 28 26 25 24 21 19 17 16 16 16 16 16 16 16 16 16 16 17 17 18 18 18 18 18 17 17
15 15 13 10 10 14 15 17 23 27 20 14 19 21 16 15 15 16 21 23 24 25 28 31 33 33 31 30 29 27 24 23 21 19 18 17 17 17 17 17 16 16 15 16 16 17 17 18 18 18 18 17
14 15 15 13 10 12 14 14 16 22 21 13 13 16 13 12 14 16 21 24 24 24 27 30 31 33 32 31 30 29 28 27 25 23 21 19 19 18 18 18 17 16 16 16 16 16 17 17 18 17 17 17
14 14 16 16 14 14 15 16 16 20 25 18 11 10 11 12 14 15 19 23 24 24 25 28 30 31 31 30 29 29 29 28 27 26 25 23 21 20 20 19 18 18 18 18 17 17 18 19 18 18 18 17
14 14 15 16 17 16 17 20 20 19 23 21 16 13 13 14 15 15 17 21 21 22 23 26 28 28 28 28 27 27 28 27 27 26 27 26 24 23 22 21 20 19 19 19 19 20 21 20 20 20 18 17
15 14 15 16 17 18 18 20 21 21 22 21 21 20 16 15 16 15 16 18 18 18 20 24 26 27 27 27 27 27 28 28 27 28 29 28 27 25 24 24 23 22 22 21 21 23 22 22 22 21 19 19
15 15 15 16 17 18 19 20 20 19 20 20 22 22 19 17 17 17 17 17 17 18 19 22 25 26 27 27 28 28 28 29 29 30 30 29 27 27 27 27 26 25 24 23 24 25 24 23 23 21 20 21
14 15 15 15 16 17 18 20 20 20 20 22 23 23 22 21 19 19 20 20 20 21 23 24 24 26 26 27 28 29 29 30 30 30 30 29 28 28 28 29 29 27 26 26 26 26 25 25 24 22 22 23
14 15 16 15 15 16 16 17 20 21 22 23 23 22 24 25 23 22 23 23 24 24 26 26 25 26 27 27 28 29 31 31 30 30 29 29 29 30 30 30 30 29 28 28 27 27 27 27 26 25 25 25
Wind_Direction
265 258 249 235 239 239 229 231 230 230 232 226 225 226 226 228 236 243 241 235 231 229 230 230 234 239 242 243 242 245 247 247 247 246 246 244 244 241 239 239 235 235 238 239 239 240 240 237 232 226 221 221
261 256 252 242 240 239 228 227 229 229 229 227 227 228 228 231 237 241 238 233 231 230 229 229 231 234 238 240 240 242 244 244 245 245 246 246 246 245 243 242 237 235 238 237 236 237 237 235 232 228 223 219
261 257 249 242 244 244 232 224 226 226 224 225 227 229 232 236 240 239 233 228 228 228 227 228 229 229 231 236 237 238 240 242 243 244 246 247 249 249 247 245 240 235 235 235 234 234 233 231 229 227 223 218
262 257 245 238 241 248 240 227 224 224 222 225 228 231 236 241 242 239 234 229 226 224 225 227 228 225 224 229 232 235 238 240 242 244 246 248 251 251 249 248 243 236 233 232 232 231 229 227 226 225 222 217
259 253 244 236 235 244 247 232 223 222 223 226 228 233 237 239 241 240 239 236 229 224 223 223 224 221 219 223 227 232 235 238 242 244 246 249 252 253 250 248 243 236 233 232 230 228 226 225 224 224 221 216
261 250 240 235 233 239 245 235 224 223 224 226 227 234 238 238 242 242 239 239 232 225 222 221 221 219 216 218 224 229 233 236 239 243 248 251 252 251 246 242 238 234 232 231 229 226 224 223 223 223 221 215
266 250 237 237 237 238 243 237 226 221 223 224 228 235 239 241 245 245 240 240 236 228 222 219 220 219 217 218 222 226 230 235 238 244 249 251 250 246 239 235 233 231 229 230 228 225 223 222 221 222 221 216
268 252 242 243 241 236 239 237 225 220 222 224 228 235 241 245 244 243 241 241 239 234 229 224 221 220 220 220 224 227 230 236 240 243 245 245 245 241 236 233 230 229 227 229 228 225 224 223 222 222 220 218
268 255 250 249 242 236 236 233 224 220 224 226 231 235 240 245 241 241 242 242 239 234 234 233 228 224 222 222 226 230 233 237 237 238 238 238 238 236 234 231 229 227 225 225 225 225 224 223 223 223 221 220
268 253 254 251 241 237 234 227 222 220 223 227 232 234 239 245 244 244 246 246 243 235 233 234 234 232 227 222 225 229 233 235 235 235 235 235 235 234 231 229 228 225 225 224 222 222 223 223 224 226 225 223
263 250 255 254 240 236 232 226 221 219 221 226 232 237 244 250 249 250 251 251 248 239 233 229 230 234 230 223 223 227 233 235 236 236 236 236 236 232 230 228 227 224 225 226 222 221 221 222 223 226 228 227
263 252 256 261 247 238 233 226 222 218 220 226 231 237 246 249 248 249 252 253 248 239 232 226 225 229 229 223 222 226 231 235 236 236 235 235 233 231 229 227 226 223 223 226 225 222 221 221 221 223 227 229
262 256 258 262 255 244 232 222 219 217 220 226 228 233 237 240 248 251 250 252 248 238 232 227 222 223 225 222 221 225 229 232 234 233 230 230 230 229 227 226 224 222 221 223 224 224 222 221 221 222 225 228
259 258 262 261 251 243 230 218 217 217 218 225 229 234 235 236 247 249 245 246 248 241 233 229 223 219 222 222 223 225 226 229 230 229 227 226 227 227 226 224 222 220 219 219 221 223 224 224 222 221 224 226
260 256 260 263 249 235 227 220 220 219 220 228 231 235 238 237 241 240 237 241 247 242 232 229 225 219 219 221 226 228 227 228 228 227 225 225 225 225 225 224 221 219 219 218 219 221 223 225 225 224 225 225
258 260 255 256 254 231 224 227 228 223 224 230 233 237 237 229 230 231 231 241 244 236 229 227 224 221 218 219 226 229 228 228 228 226 224 223 223 223 224 224 223 220 219 219 219 220 222 224 227 228 228 227
249 273 256 243 260 245 228 234 233 228 230 233 235 238 234 228 231 232 228 236 238 229 226 225 223 219 216 218 225 229 228 229 227 225 223 221 221 220 221 221 221 219 219 219 219 220 221 222 225 228 230 231
238 275 255 236 252 266 244 238 239 235 230 230 233 235 235 236 243 242 231 233 235 229 223 222 223 219 216 218 225 232 232 230 229 226 223 221 221 220 220 219 218 218 218 218 218 219 220 221 222 225 229 231
253 265 255 241 254 271 248 234 244 242 225 226 234 236 238 239 241 240 234 231 227 226 222 220 221 219 217 219 225 234 236 235 232 228 226 224 223 222 222 221 219 219 220 220 219 220 222 221 222 224 227 229
270 263 250 245 250 265 255 243 251 250 232 233 238 232 233 235 237 236 231 225 219 217 217 216 217 217 216 218 226 234 237 236 234 231 230 227 226 226 225 223 221 221 221 224 224 223 225 225 224 225 227 228
281 269 251 246 243 245 254 251 243 233 224 233 238 228 225 226 230 231 227 222 217 214 211 211 214 214 214 214 221 230 235 236 233 232 232 230 229 227 227 226 224 223 222 224 226 226 227 228 228 227 228 230
310 292 259 249 243 239 244 241 228 217 209 218 233 230 224 222 223 225 223 216 211 210 209 211 213 213 214 214 218 225 230 234 233 233 234 234 234 231 231 229 226 226 224 225 227 229 230 230 231 232 232 233
312 310 280 251 244 242 248 246 231 218 208 213 227 227 223 225 227 227 223 214 205 205 207 212 215 215 214 215 220 223 226 232 233 232 232 234 235 234 234 232 229 228 227 228 230 233 235 236 236 236 235 235
303 306 296 271 254 251 257 263 244 226 220 230 230 225 226 236 243 240 230 216 204 203 206 210 214 215 214 214 216 219 223 227 230 231 230 230 233 234 234 233 232 230 230 232 234 237 240 242 242 240 239 238
298 302 296 283 273 268 262 268 255 230 227 240 230 225 235 246 252 248 236 220 205 204 208 210 213 216 216 215 214 215 220 223 227 231 231 230 232 235 236 236 235 233 232 231 232 236 239 243 244 243 242 241
291 293 295 286 275 272 259 255 257 234 224 229 231 239 251 250 248 246 236 222 209 207 211 213 216 217 218 217 216 218 222 224 226 230 233 233 232 234 235 236 236 235 236 234 233 233 235 237 240 241 241 240
298 285 285 284 275 270 261 256 258 242 229 233 243 252 257 249 241 236 228 222 216 214 216 218 219 220 221 221 221 223 226 228 228 230 234 235 233 232 233 234 235 235 237 237 236 236 236 237 238 240 240 239
308 292 279 277 273 268 264 264 262 249 240 245 251 255 255 241 231 226 219 216 219 221 223 224 224 224 225 226 226 226 227 228 228 230 233 234 234 234 234 234 234 234 234 235 237 239 239 238 239 240 241 240
312 304 287 274 270 267 263 263 263 255 247 250 256 257 252 238 227 220 213 209 211 217 223 227 227 227 227 228 228 228 227 228 228 230 232 234 236 237 237 238 237 237 236 236 238 240 241 241 242 241 242 243
311 310 301 283 270 267 264 260 258 253 247 251 259 259 250 241 232 221 214 209 210 216 220 223 226 228 228 229 229 229 229 230 231 232 233 234 235 236 238 239 240 240 241 240 240 243 245 246 247 245 244 244
317 310 305 296 277 266 266 264 258 251 247 251 258 259 250 242 238 232 223 217 218 221 221 221 224 225 226 229 230 231 232 233 234 235 236 236 237 237 238 238 240 241 242 242 243 246 247 248 249 249 247 247